Retour au catalogue

STARLINK-31850

ActifCommunicationsVLEO
NORAD 59903·PAYLOAD·🇺🇸 United States

Lancé May 28, 2024 depuis Cape Canaveral Space Force Station

Loading…

Prochains Passages (prochaines 24 heures)

TLE

FraisSource: CelesTrak SupGP

Époque: Sep 14, 2026, 22:12 UTC

1 59903C 24100U   26257.92548611 -.00063612  00000+0 -23036-2 0  2573
2 59903  42.9998 136.4101 0001340 268.2077   3.4048 15.27616261    12

Suivez STARLINK-31850 en temps réel avec AllMySat

Download on the App Store